Wind_Gust
6 7 6 5 2 3 5 5 10 11 8 8 7 6 20 10 14 14 18 12 6 9 6 9 8 6 10 15 23 16 10 8 4 17 12 11 9 19 21 22 19 19 20 17 16 17 17 20 22 22 21 23 21 21 22 22 21 20 19 18 18 17 17 16 16 16 17 16 16 15 14 15 15 15 14 15 16 15 15 16 16 16 17 16 16 16 17 17 17 18 17 17 16 15 12 11 14
4 7 7 5 4 3 6 2 10 4 6 5 13 3 17 10 4 10 17 5 4 7 14 22 24 27 26 25 21 19 20 13 8 14 15 17 17 18 18 20 19 22 20 18 18 17 16 20 22 21 22 22 21 22 22 21 21 20 19 18 18 17 17 15 15 15 16 16 16 14 16 16 15 16 15 15 14 14 13 16 16 17 17 16 17 16 16 17 17 17 17 16 16 14 11 9 12
5 8 8 8 4 5 5 4 10 5 6 10 16 17 11 5 9 19 21 11 15 12 18 18 17 13 11 5 15 9 4 13 25 19 21 17 23 11 15 17 18 20 20 18 20 18 16 18 21 21 22 22 23 22 21 20 20 20 19 18 18 17 16 15 14 15 15 15 14 16 16 15 15 15 16 15 14 13 13 14 17 17 17 18 16 16 16 16 17 16 15 16 14 13 10 8 11
3 2 4 4 7 5 4 6 5 9 7 13 14 16 17 4 17 13 13 6 17 9 13 11 13 11 13 21 16 17 15 14 17 22 27 11 15 18 17 18 18 19 18 18 18 19 17 20 21 22 23 23 22 22 21 20 20 19 19 18 18 16 15 14 14 14 14 14 15 16 16 16 16 16 17 16 16 16 16 16 17 18 18 15 15 17 17 15 15 15 15 14 13 11 9 9 11
4 1 3 4 7 6 6 9 8 9 13 14 13 14 4 9 13 18 17 6 10 16 19 19 24 12 16 16 3 11 9 15 16 13 22 17 19 20 19 17 18 19 18 18 18 17 18 22 21 20 22 23 22 21 21 20 19 19 19 18 18 16 15 14 13 13 14 15 15 15 16 16 16 18 18 18 17 17 16 17 16 17 16 16 16 15 14 13 13 15 15 12 10 10 9 10 12
2 4 2 5 5 6 7 7 8 10 16 10 9 17 5 8 8 12 13 8 5 13 15 6 21 11 17 10 8 15 19 17 17 17 26 19 22 21 19 17 19 20 18 17 18 16 18 20 20 20 21 22 22 21 20 19 19 19 19 18 18 17 15 14 14 14 15 15 14 16 16 16 17 18 19 18 16 17 16 15 15 15 15 15 15 14 14 13 13 13 12 10 9 10 10 11 12
6 8 5 4 8 4 9 6 9 11 22 10 24 20 8 15 22 18 13 6 14 13 12 24 25 20 23 14 19 13 11 14 16 20 20 23 21 21 19 21 21 20 17 18 17 18 19 19 20 20 20 21 21 20 20 19 18 19 19 18 16 16 16 15 14 15 14 14 13 16 16 17 17 19 19 18 16 15 15 15 16 16 14 13 13 13 13 13 14 13 12 10 9 9 9 9 10
1 7 4 5 7 5 6 8 12 9 17 16 19 13 12 18 16 8 9 6 12 16 7 17 10 26 9 9 17 12 16 17 25 25 27 24 20 19 21 23 23 18 17 16 17 19 23 19 19 19 20 20 20 19 19 19 18 19 19 18 16 16 16 13 12 13 13 13 14 15 17 18 18 18 17 17 17 16 16 15 15 15 14 15 14 12 13 13 14 12 10 8 8 8 9 10 11
4 5 4 9 4 6 5 10 16 12 19 10 17 17 13 19 24 14 15 6 8 9 16 18 20 23 8 17 17 11 23 24 27 25 24 22 20 20 24 22 23 20 18 17 16 17 17 18 18 19 19 19 19 19 19 18 18 19 19 17 15 12 13 14 14 14 12 11 11 15 18 18 18 17 16 16 17 16 15 15 14 15 15 14 14 14 13 13 12 11 8 8 7 8 9 10 11
2 6 5 10 8 6 6 15 8 13 15 15 16 20 19 18 18 15 17 5 14 10 4 5 17 22 18 22 16 10 19 21 24 22 19 19 22 22 21 21 23 22 18 17 15 16 16 20 18 17 17 18 18 18 18 16 17 18 18 16 14 12 14 15 13 13 13 13 14 15 16 16 17 15 14 16 16 15 15 14 14 15 15 14 14 14 13 12 11 9 7 7 7 7 10 11 12
6 5 4 5 3 7 11 14 11 18 17 16 16 22 20 22 21 20 19 7 16 16 14 26 27 23 21 11 12 4 14 19 21 19 18 24 24 23 22 20 21 22 21 17 15 14 16 15 20 17 17 17 16 15 16 17 18 16 15 14 14 14 15 14 14 15 14 15 16 15 15 15 16 15 16 16 16 15 14 15 14 14 15 14 13 13 13 11 10 9 8 7 7 8 9 10 11
5 5 5 4 8 10 10 8 12 18 17 15 23 18 11 21 19 22 20 8 14 21 17 9 20 28 20 17 12 11 11 14 14 16 21 22 24 24 22 20 20 19 21 18 16 14 15 15 15 20 19 17 17 17 17 18 18 17 15 16 14 13 15 14 13 14 15 14 14 13 13 14 16 16 15 15 15 15 14 14 14 14 13 13 13 12 12 11 10 7 7 6 7 8 9 10 10
7 3 2 5 9 5 10 7 16 14 16 19 19 31 11 17 15 16 10 8 11 14 11 9 29 10 15 13 12 11 15 9 14 20 22 24 22 23 22 22 21 20 19 18 18 16 15 15 17 16 16 21 17 17 18 18 18 17 15 15 14 16 16 15 16 17 16 14 13 14 14 13 14 14 13 14 14 14 14 14 14 13 12 12 12 12 10 10 9 6 5 5 6 8 9 8 9
11 11 7 9 3 6 7 8 8 10 17 22 15 18 11 13 14 14 11 15 13 16 7 22 20 23 21 20 14 15 15 11 19 21 24 23 23 25 23 22 21 20 17 18 20 19 17 16 16 15 16 14 13 16 18 19 18 17 14 13 14 15 15 15 16 17 15 14 15 16 15 14 13 12 12 13 13 14 13 13 13 12 12 11 11 11 10 9 8 6 4 4 5 7 8 8 8
12 6 5 7 9 5 7 11 6 3 20 16 17 6 6 5 4 6 21 23 20 11 19 9 25 18 22 23 16 19 18 15 21 22 25 25 26 25 23 22 21 16 15 16 19 18 17 15 13 10 9 9 10 10 9 16 19 17 14 15 15 15 15 17 18 17 16 14 15 16 16 15 13 13 12 12 12 13 14 13 13 12 11 10 11 11 10 9 8 6 4 5 5 7 7 8 8
13 7 7 6 10 7 14 9 2 5 21 7 12 8 6 4 7 11 11 23 17 12 4 14 8 7 21 14 27 25 21 19 21 25 28 28 25 24 25 25 20 17 16 16 15 14 14 13 12 13 12 10 9 8 9 9 16 19 16 16 16 16 17 18 17 16 16 16 16 15 15 14 13 12 13 10 11 12 12 10 12 11 11 10 9 10 10 10 8 5 4 5 6 6 7 8 8
6 9 8 9 14 9 10 7 4 11 14 9 11 8 4 9 11 15 12 21 25 8 14 10 6 12 22 11 26 26 22 22 25 27 26 24 25 22 22 19 19 17 17 13 10 13 14 14 13 13 13 13 13 11 10 11 15 18 16 18 18 17 17 18 17 16 15 14 13 13 12 10 8 9 10 8 10 7 9 12 12 12 11 10 9 9 9 9 9 7 3 3 7 7 7 7 8
5 11 13 11 14 16 6 9 8 8 12 11 12 7 4 8 13 12 23 22 21 20 19 19 22 20 21 26 25 23 23 26 25 25 22 23 21 20 16 15 19 18 12 10 9 8 11 14 15 15 14 14 13 14 12 11 12 13 9 10 10 13 15 14 13 9 10 8 13 13 9 8 7 7 7 8 6 8 10 13 12 12 11 11 9 9 8 7 8 8 5 5 6 7 8 4 6
10 8 12 20 12 14 3 6 13 13 15 18 11 6 3 6 8 7 21 13 24 24 19 22 24 20 21 22 22 22 22 22 22 22 22 21 21 20 17 14 11 10 9 10 10 13 11 10 14 14 12 10 10 7 8 7 8 8 8 9 10 10 10 9 7 8 7 8 8 8 5 3 5 4 6 7 7 8 8 14 13 12 12 11 10 9 8 8 8 8 6 5 6 8 7 6 6
10 10 14 21 7 7 7 5 12 16 18 20 9 11 9 7 7 9 17 14 25 29 26 17 27 23 20 20 20 20 21 21 21 21 21 21 19 19 17 14 14 11 11 12 10 6 7 10 7 8 9 9 8 7 6 7 6 6 6 7 8 7 7 8 6 7 6 6 8 7 6 5 3 2 7 13 11 8 8 12 14 13 12 11 11 8 8 8 9 8 7 6 6 5 5 7 7
9 12 20 10 4 8 9 5 8 14 21 16 6 8 14 14 8 17 22 18 15 16 23 28 26 27 25 21 20 20 20 21 19 20 21 20 17 15 13 11 14 13 10 7 8 6 5 6 8 9 11 11 10 9 8 6 6 6 5 6 7 6 6 6 5 3 4 4 5 6 6 4 4 2 2 4 3 7 8 7 7 7 7 6 8 5 5 5 6 6 4 3 2 3 5 7 6
6 12 13 8 9 10 16 11 12 13 15 3 7 12 9 9 13 16 17 21 18 24 15 26 28 28 28 25 20 19 18 18 19 20 20 22 22 19 17 11 6 6 5 8 8 7 7 8 9 9 12 11 10 11 11 10 9 8 7 7 6 5 5 4 5 5 4 4 5 5 5 5 3 4 3 3 3 4 7 8 8 8 4 5 6 7 6 6 6 7 6 4 3 3 5 6 7
17 15 8 9 10 12 9 8 7 8 11 6 7 6 9 9 5 4 11 20 16 12 20 24 25 23 23 22 21 18 16 19 21 21 21 20 22 21 19 18 17 14 9 7 7 7 8 8 8 9 12 11 10 10 10 10 9 8 9 10 10 8 6 6 6 5 4 4 5 6 6 5 5 4 2 2 2 1 2 5 6 7 7 6 5 6 7 7 7 7 6 6 4 3 6 6 8
17 24 5 9 10 16 17 14 5 9 10 7 5 6 9 9 7 7 14 13 18 17 16 22 23 23 23 24 17 17 20 21 20 19 20 21 20 19 20 18 12 9 9 8 6 7 7 9 7 8 11 10 9 9 9 10 8 9 9 11 10 9 9 8 7 5 5 5 6 6 5 7 8 6 4 5 5 3 5 5 6 4 4 6 6 6 5 5 7 7 6 6 6 5 6 8 8
16 25 13 9 6 10 10 9 8 10 3 7 8 10 11 8 5 6 11 17 20 21 21 22 23 23 21 22 21 22 23 22 23 17 15 18 18 14 12 14 10 8 11 10 9 7 7 8 8 8 10 9 9 9 9 8 8 7 8 8 10 10 8 7 7 7 7 6 6 7 7 7 5 4 6 8 6 7 7 6 4 5 4 4 4 7 7 7 6 7 8 9 9 8 7 10 10
12 16 11 8 9 10 8 6 6 10 5 3 7 9 14 11 15 14 12 15 19 21 21 22 22 23 21 19 22 23 24 24 21 18 16 17 13 16 15 14 10 10 12 14 11 9 8 7 8 7 8 10 10 9 9 10 10 10 9 9 9 10 8 8 6 7 7 7 6 6 6 6 7 8 6 5 8 8 7 6 4 4 5 3 4 6 7 8 8 7 7 8 9 9 9 12 9
5 7 14 15 15 12 7 8 4 6 5 5 5 5 12 8 13 6 4 18 21 20 21 19 21 21 18 18 22 23 25 23 22 17 19 18 17 17 14 13 10 10 13 12 11 11 10 9 8 8 8 9 7 9 8 9 8 10 9 8 7 8 8 8 6 6 7 6 6 5 7 7 6 6 7 7 6 7 7 6 6 5 6 5 5 4 3 7 8 9 10 10 9 9 11 10 7
8 10 7 10 11 11 4 2 2 3 5 6 8 5 6 10 10 20 15 15 24 25 21 19 20 20 19 21 23 21 23 18 17 18 21 18 19 18 14 16 16 13 14 12 10 9 10 9 9 7 8 9 7 7 8 9 8 8 8 6 6 6 6 7 6 6 7 7 6 7 7 8 6 6 7 7 7 7 7 7 7 6 7 6 5 4 2 2 5 7 6 6 6 6 7 6 7
10 8 10 9 7 19 11 10 7 7 7 5 4 3 6 6 8 20 21 16 21 26 22 21 21 22 23 23 22 21 21 18 17 17 13 13 11 8 13 9 14 16 11 12 11 10 9 9 10 8 8 6 6 7 8 7 7 7 7 6 6 8 8 7 7 7 6 6 6 7 6 5 5 6 7 6 7 8 8 8 8 8 7 7 7 5 4 2 2 5 5 3 3 3 3 4 5
5 3 8 6 6 7 12 4 4 8 7 10 11 9 12 12 8 20 23 19 19 23 22 21 22 23 24 25 23 21 19 20 16 15 12 10 10 10 12 9 11 12 14 12 12 12 10 8 9 9 7 6 6 4 4 5 6 6 6 7 6 6 7 7 6 5 5 5 5 5 7 7 8 8 7 6 6 6 7 8 8 8 6 5 5 5 7 6 6 5 6 4 7 4 6 3 11
12 7 3 6 3 10 8 7 4 7 8 9 8 11 13 12 8 22 22 21 23 23 20 20 22 21 22 25 24 20 15 16 15 12 9 7 9 11 12 11 10 12 14 12 13 12 10 9 9 9 9 5 7 5 5 5 4 6 7 7 6 4 6 7 3 4 5 6 7 8 9 9 10 11 9 7 6 4 6 7 8 9 5 4 7 6 8 6 7 8 3 6 6 4 2 2 8
10 9 11 5 6 10 11 7 7 13 6 9 10 9 16 11 15 22 21 20 23 25 21 21 21 23 24 24 23 20 18 16 15 11 8 8 8 11 12 12 11 10 11 13 15 13 11 8 9 9 8 7 6 6 4 5 6 7 8 8 6 4 3 6 5 6 7 7 8 8 9 9 8 8 8 7 7 7 7 7 8 4 5 4 6 5 5 8 7 6 5 4 5 5 2 2 7
9 8 7 7 4 10 8 5 7 12 9 3 14 15 5 10 11 18 20 20 23 25 21 23 27 25 25 23 21 21 21 18 17 15 11 9 7 10 11 12 12 11 11 11 12 11 10 11 12 9 9 8 8 6 5 4 4 7 5 4 7 5 5 6 5 5 6 7 7 8 8 8 7 7 8 8 7 7 7 8 7 5 4 5 5 6 7 6 7 7 5 5 6 6 2 5 3
13 4 13 8 8 7 10 10 6 9 9 7 10 15 9 6 17 20 19 23 24 24 21 24 25 24 23 22 22 21 19 18 15 12 9 6 9 9 9 12 14 13 11 12 11 13 13 11 11 10 9 8 7 8 7 5 3 3 5 6 6 7 3 5 5 5 7 8 7 7 6 8 8 7 5 6 6 6 6 6 6 4 4 5 6 6 8 6 6 7 8 7 7 6 4 3 4
13 6 6 8 3 7 13 14 8 7 13 13 6 11 14 10 6 24 24 25 26 25 24 23 25 24 21 22 22 18 17 17 13 11 8 7 9 8 8 10 10 10 10 9 9 10 11 10 9 9 8 6 6 6 5 4 5 6 5 5 2 4 6 7 6 6 7 7 8 8 7 8 7 5 5 7 8 7 7 7 7 5 4 5 6 6 6 6 6 7 8 7 5 5 6 8 8
11 8 10 7 9 12 13 13 7 14 11 17 7 15 19 7 5 15 21 22 24 20 19 22 21 21 21 20 18 16 15 15 10 8 6 7 8 10 11 12 11 12 12 11 10 10 10 8 6 6 6 6 5 4 8 8 6 5 4 4 6 7 6 6 6 7 6 7 7 7 7 7 6 7 7 6 8 8 8 8 8 5 5 5 7 7 8 8 11 9 9 9 8 5 6 8 8
9 9 7 13 15 15 10 6 9 16 12 16 12 11 7 4 7 26 20 18 20 23 23 21 19 21 21 21 19 19 17 16 12 12 7 8 12 12 12 14 13 12 12 11 10 9 8 9 8 6 3 4 5 8 9 12 11 9 5 7 8 8 7 5 7 7 7 8 7 8 7 8 7 7 8 7 8 8 7 6 6 5 5 6 7 10 9 10 9 9 10 9 10 10 8 8 9
16 9 6 12 9 17 17 12 11 16 17 15 9 11 15 9 14 20 19 22 17 21 24 22 25 25 24 24 21 19 17 17 16 16 15 14 16 16 16 15 13 15 10 12 11 10 8 8 9 7 6 6 7 6 6 9 7 11 7 8 7 6 7 6 9 7 10 8 7 8 8 8 8 8 7 5 6 6 6 6 7 7 7 7 7 6 5 6 5 7 8 9 7 12 13 11 11
12 11 9 7 17 8 9 6 10 15 17 14 11 20 14 15 16 15 20 21 18 14 20 24 30 27 24 21 20 18 18 18 17 15 14 16 16 16 17 15 14 13 11 12 10 10 9 9 8 6 6 7 6 4 5 4 2 2 2 4 5 6 5 9 9 7 6 8 8 8 8 8 7 7 6 5 6 6 7 6 7 7 7 8 8 9 7 8 9 10 10 12 9 7 8 8 12
11 8 7 17 12 6 13 8 18 15 27 13 21 26 14 16 20 21 12 23 21 16 19 22 21 23 22 19 16 17 16 18 16 16 16 15 16 16 17 16 13 12 14 13 11 11 10 10 9 11 12 11 11 10 5 2 1 2 2 4 7 4 4 2 5 2 3 3 7 8 8 7 6 6 4 5 5 5 6 8 7 7 9 8 9 9 8 10 9 9 10 11 9 8 11 10 11
15 13 11 15 15 14 11 11 16 26 13 28 29 22 10 9 25 20 18 18 27 22 25 23 20 20 21 20 18 16 18 16 17 16 15 15 18 17 17 11 13 15 15 14 11 11 13 12 11 12 12 11 10 11 11 8 8 6 6 6 5 5 3 2 3 2 3 6 5 4 10 7 6 7 6 6 7 7 7 8 9 9 9 9 9 10 10 10 9 9 10 10 12 14 12 12 11
20 12 15 18 15 10 4 9 11 13 14 19 31 16 8 7 14 24 17 19 22 18 23 20 18 18 20 19 18 18 16 13 16 18 14 15 17 16 16 14 16 15 18 11 10 14 15 14 13 12 12 12 11 10 10 11 11 10 9 9 8 6 7 9 3 3 6 7 9 5 4 6 7 7 7 7 8 7 8 9 9 10 10 10 12 12 10 9 8 9 10 10 12 11 13 10 13
15 20 16 21 18 7 3 12 4 19 30 21 12 28 16 6 14 15 17 18 19 16 19 17 16 18 18 17 16 18 18 15 15 16 13 17 16 17 16 17 15 16 13 9 14 14 13 12 11 12 12 10 10 10 10 11 11 10 9 6 5 5 7 7 6 7 4 5 4 7 6 5 7 8 8 8 8 8 8 9 10 11 12 11 11 11 12 11 11 10 9 10 13 12 7 13 14
28 9 15 15 12 9 10 10 16 13 8 6 5 27 26 16 16 10 15 20 18 16 15 17 16 17 17 15 17 17 18 15 15 16 15 17 17 15 17 18 14 13 12 11 14 11 12 12 11 11 12 11 9 9 11 10 10 8 9 9 8 10 10 9 10 7 4 5 7 7 7 6 5 4 5 6 8 7 8 9 9 9 10 10 10 12 13 11 11 9 10 11 13 12 13 17 15
19 8 11 10 11 11 12 15 9 9 8 7 8 16 24 14 12 14 18 21 15 15 15 16 17 17 17 17 18 19 16 14 15 15 15 16 17 14 15 17 13 14 13 12 11 9 10 10 9 8 11 9 10 10 10 9 8 8 9 9 11 10 9 10 11 10 10 9 7 7 6 5 7 7 4 5 6 7 8 9 8 8 10 8 8 9 8 9 10 11 11 12 12 12 14 16 15
13 10 8 8 7 7 11 15 14 8 12 13 16 22 25 11 14 18 9 14 21 17 15 18 16 18 18 19 16 16 15 15 17 15 16 16 16 15 13 14 16 13 10 9 10 12 14 11 12 12 11 10 10 9 10 10 10 10 12 11 10 10 10 11 9 12 12 10 10 9 7 7 7 6 7 6 7 6 7 10 9 8 8 8 8 9 7 8 13 15 15 14 12 13 14 16 17
4 13 14 8 3 5 7 10 11 8 17 24 21 16 21 22 22 21 26 27 28 18 15 17 19 19 19 17 16 15 13 15 16 16 15 15 14 15 15 15 14 11 10 10 11 11 10 10 9 10 8 10 10 10 10 11 12 12 12 10 9 10 10 10 11 11 11 11 13 12 12 11 8 7 6 7 6 7 7 5 5 9 9 9 9 8 10 13 16 16 13 12 13 15 14 16 17
11 16 18 6 12 5 6 7 6 18 19 11 13 15 17 26 18 20 11 8 18 31 25 24 22 21 21 16 17 14 14 15 15 16 15 14 15 15 13 14 13 10 10 11 9 9 9 9 8 8 9 9 10 10 11 12 12 12 11 11 13 13 12 10 11 11 12 11 12 13 12 12 12 9 7 7 7 6 7 6 5 6 9 9 10 9 9 10 10 9 9 11 13 15 15 17 17
19 11 7 17 13 16 18 11 17 17 20 9 13 11 13 7 5 6 5 18 19 8 17 26 26 25 23 20 16 15 14 15 15 15 14 12 12 12 13 13 10 7 7 5 6 5 6 6 6 8 8 8 9 8 9 8 9 10 12 11 10 10 11 11 12 13 13 13 13 13 14 16 16 17 15 13 11 9 8 9 8 7 7 8 9 9 10 10 11 10 10 9 10 15 14 14 14
16 22 15 16 19 17 17 11 11 8 12 8 14 6 12 6 8 10 12 13 18 18 19 21 21 24 22 19 16 16 14 14 14 15 14 12 12 11 12 11 8 7 5 3 3 3 4 6 5 7 6 6 7 9 8 9 9 10 9 9 8 8 8 10 11 11 12 10 12 12 12 13 14 13 14 13 14 12 9 8 8 9 7 8 9 11 12 12 11 10 11 12 16 16 13 14 16
18 9 17 16 18 22 17 15 22 17 14 7 8 21 15 11 6 9 17 17 17 18 21 17 17 16 17 15 16 16 15 12 13 14 14 13 13 14 14 10 7 5 3 1 2 4 5 6 9 8 7 7 8 7 8 9 9 10 9 10 9 7 9 9 9 10 11 12 11 11 10 11 12 13 14 13 13 12 11 9 8 9 9 8 8 9 13 14 9 9 10 12 14 13 10 11 11
14 13 13 12 25 16 8 17 14 12 10 7 13 11 5 9 5 12 18 20 21 21 19 17 17 14 15 15 15 14 14 14 11 11 11 10 10 12 11 6 4 4 4 5 6 6 10 10 9 8 8 7 6 6 7 8 7 9 10 11 11 11 10 9 10 10 9 8 9 10 10 10 10 11 12 12 13 11 11 11 9 9 10 10 8 8 10 13 8 9 11 12 14 12 12 14 15
18 14 27 22 11 15 10 3 2 10 14 9 8 13 14 10 9 12 20 19 20 21 21 20 18 16 15 15 14 14 13 13 11 10 9 10 11 9 7 5 5 6 6 6 8 9 10 9 9 9 9 8 7 6 6 6 7 7 9 10 10 10 10 9 9 8 8 7 7 8 9 10 10 10 12 10 12 13 13 13 12 11 9 9 9 7 9 11 12 11 13 13 14 9 9 15 12
20 29 21 8 8 12 16 13 7 8 19 13 5 13 14 15 17 13 16 19 16 19 21 21 18 15 16 14 14 14 14 13 11 9 8 8 10 10 10 10 10 12 10 8 8 6 6 6 7 8 8 9 6 7 7 6 6 6 5 5 5 6 6 7 7 7 7 7 8 9 8 11 11 12 12 12 11 13 13 15 15 15 13 10 10 9 8 10 11 11 11 11 11 11 13 12 12
20 21 11 21 17 18 9 16 13 12 14 12 7 14 14 13 11 18 18 21 18 18 19 20 19 18 17 15 16 15 14 13 11 8 9 10 12 11 10 11 11 10 8 8 7 8 9 6 6 6 7 6 6 5 5 6 7 5 4 5 6 7 8 8 8 9 8 9 11 12 12 13 13 14 16 17 16 16 14 15 15 15 14 16 14 12 12 10 10 11 11 12 11 10 11 11 11
3 7 10 10 12 12 14 23 12 20 9 10 9 14 13 15 18 20 20 20 21 21 18 18 20 17 17 17 16 15 14 11 10 9 10 13 12 10 11 11 11 11 11 9 8 8 9 7 7 6 6 5 5 5 6 8 7 6 8 10 10 10 10 9 10 10 12 14 17 17 18 17 17 16 16 17 18 17 17 18 16 17 17 17 17 21 24 23 19 14 13 11 12 11 13 13 12
7 9 7 12 16 8 14 8 15 14 19 15 17 15 14 8 12 24 23 23 25 25 23 19 19 17 16 15 15 13 12 10 7 7 11 14 11 12 12 10 10 10 10 9 9 8 6 6 6 6 6 5 6 6 8 8 8 8 11 13 13 12 12 12 14 14 15 17 17 18 19 19 19 19 19 19 19 19 19 18 17 18 17 19 23 24 25 24 23 23 22 21 20 17 13 12 11
14 16 13 11 7 10 13 16 9 12 20 20 19 17 8 6 2 15 21 21 22 20 22 20 16 17 15 14 12 12 11 7 7 8 10 13 14 14 14 15 14 12 10 10 8 10 9 7 6 8 12 10 8 9 10 9 9 11 11 13 13 12 12 13 14 15 15 16 16 17 16 17 16 17 17 18 18 17 19 20 19 20 20 19 23 21 20 19 21 21 21 23 22 22 21 17 12
Wind_Speed
3 3 4 3 1 1 1 2 0 2 1 3 1 2 6 3 4 7 10 5 2 3 3 4 2 3 3 5 12 8 5 4 2 7 3 1 4 11 14 14 13 13 13 10 9 10 11 14 17 18 17 17 17 17 18 18 17 16 15 15 14 14 13 13 13 13 13 13 13 12 11 13 13 12 12 12 13 12 12 13 13 13 13 12 12 13 13 13 12 13 13 12 11 9 8 9 12
2 4 4 3 1 1 1 0 2 1 2 1 6 0 9 2 3 6 11 3 1 1 1 11 12 15 17 15 12 10 12 8 5 6 7 8 10 10 13 13 13 15 13 10 10 10 10 12 17 17 18 18 17 18 18 17 17 16 15 14 14 14 13 12 12 12 13 13 12 11 13 13 12 13 12 11 11 11 11 12 13 14 13 13 13 12 13 13 12 13 13 12 10 8 6 6 10
2 4 4 5 1 2 1 1 1 1 3 5 7 7 3 2 4 12 13 4 9 7 9 11 10 6 3 0 5 4 2 9 14 11 8 9 13 5 10 12 12 13 14 10 10 10 9 11 17 17 18 18 18 18 17 16 16 16 15 14 14 13 12 12 12 12 12 11 11 13 12 12 12 12 13 11 11 10 11 11 14 14 13 13 12 12 12 11 13 12 11 11 9 7 5 6 9
2 1 2 1 1 2 1 2 3 5 2 7 5 8 5 1 11 9 9 4 10 6 3 3 3 4 4 13 6 9 7 6 8 12 8 3 5 10 10 12 12 11 11 9 9 10 9 13 17 18 19 19 18 18 17 16 16 15 15 14 14 13 12 11 11 11 11 12 13 13 13 12 13 13 14 13 13 13 13 13 13 14 12 12 12 13 13 9 11 11 11 10 8 6 5 6 9
2 0 1 2 3 1 1 2 3 4 6 5 5 4 1 6 7 9 11 3 6 5 6 5 6 5 6 8 0 1 4 10 10 8 6 7 11 12 12 11 11 11 10 10 10 10 10 17 16 16 18 19 18 17 17 16 15 15 15 14 14 13 12 11 11 11 12 12 12 13 12 13 13 14 14 14 14 14 13 14 12 13 13 13 13 12 11 10 10 11 10 8 6 6 6 8 9
1 2 1 2 0 1 2 1 3 4 8 3 4 1 1 4 5 8 8 5 3 4 6 3 8 2 5 3 2 4 6 5 9 9 12 9 13 14 13 11 12 12 11 10 10 8 10 16 16 16 17 18 17 17 17 16 15 15 15 14 14 14 12 11 11 12 12 12 12 13 12 13 14 15 15 14 13 13 13 12 12 12 12 12 11 11 11 10 10 10 8 6 6 7 7 8 9
1 3 1 2 2 1 3 2 5 5 10 5 9 6 5 10 10 11 7 2 6 9 2 11 15 11 9 2 6 3 7 8 8 9 11 14 14 14 13 13 13 13 11 9 8 9 12 15 16 16 17 17 17 17 16 16 15 15 15 14 13 13 13 12 11 12 11 11 11 13 13 13 14 15 15 14 12 12 12 12 12 12 11 10 10 10 10 10 10 10 7 6 7 7 6 7 8
0 2 1 1 1 1 1 3 6 4 7 9 7 5 9 12 11 4 7 4 4 5 4 10 4 11 1 4 5 7 11 10 17 17 18 15 13 12 15 14 14 11 11 9 9 9 16 15 16 16 17 16 16 15 15 15 15 15 15 14 13 13 13 11 9 11 10 10 11 13 14 14 15 14 14 13 13 12 12 12 12 11 11 12 11 10 10 10 10 8 6 6 5 6 6 8 8
2 1 1 4 1 0 1 5 7 4 8 4 7 7 9 12 13 7 10 3 4 2 6 9 7 12 1 10 7 6 11 17 18 18 16 15 14 14 11 14 14 11 11 9 8 9 10 15 15 16 16 16 15 15 15 15 15 15 15 13 12 10 11 12 11 11 10 9 10 13 14 15 14 13 13 13 13 12 12 11 11 11 11 11 11 11 10 10 9 7 5 5 5 5 7 8 9
1 1 1 2 3 3 2 7 4 5 5 4 7 11 11 9 10 10 10 4 8 7 1 2 2 13 11 13 7 6 8 15 16 15 13 13 15 13 13 14 16 14 10 9 8 9 9 16 15 14 14 15 15 15 14 13 14 15 14 13 11 10 12 12 11 11 11 11 12 13 13 14 13 12 12 13 13 12 12 11 11 11 11 11 11 11 10 9 8 6 5 5 4 5 7 9 9
1 0 1 1 0 3 6 6 5 8 9 7 9 12 13 13 13 11 10 2 11 8 9 14 13 12 11 6 4 1 9 13 14 12 12 16 16 15 13 12 13 14 12 10 9 8 9 9 16 15 14 14 13 13 13 14 15 13 12 11 12 12 12 12 11 12 12 12 13 12 12 13 13 12 13 13 13 12 12 12 11 11 11 10 10 11 10 9 7 6 5 4 4 6 7 8 8
1 0 0 1 3 5 5 3 6 9 10 6 10 11 6 13 12 10 15 6 6 13 10 3 6 13 11 7 4 6 8 9 9 11 15 15 14 15 14 10 12 12 13 11 9 9 9 10 9 15 15 14 14 14 14 15 15 14 13 13 12 11 12 11 11 11 12 12 12 11 11 11 13 12 12 12 12 12 12 11 11 11 10 10 10 9 9 8 6 5 4 4 5 6 7 7 8
1 1 1 2 3 2 3 3 8 7 6 9 9 10 6 12 9 12 6 5 8 8 2 4 19 3 6 5 4 6 10 7 10 13 15 15 13 13 12 12 12 12 11 11 11 11 11 10 9 9 11 16 14 14 14 15 14 14 12 12 11 13 13 12 13 13 12 11 11 11 11 10 11 11 11 11 12 12 11 11 11 10 10 9 9 9 8 8 6 4 3 3 4 6 7 7 7
3 4 3 3 0 2 2 4 4 5 8 12 8 12 4 5 9 9 7 10 3 7 2 14 9 12 11 8 6 8 9 7 13 15 14 15 13 14 14 12 11 11 11 12 13 12 10 8 6 6 7 7 7 11 14 15 14 14 11 11 12 13 12 13 13 12 11 11 13 12 12 11 10 10 10 10 11 11 11 11 11 10 9 9 9 9 8 7 6 4 2 2 4 5 6 6 6
5 1 1 1 3 1 2 3 1 1 9 9 7 3 2 1 2 5 14 13 8 5 7 4 9 9 7 13 6 9 10 11 14 15 16 16 17 15 14 11 10 9 9 9 9 9 7 6 6 5 5 5 6 5 4 10 15 13 11 12 13 12 12 13 14 12 12 11 12 13 12 12 10 10 10 10 10 11 11 11 10 9 8 8 8 9 8 7 5 3 2 3 3 4 4 5 5
4 2 1 1 4 3 5 1 1 4 8 3 7 6 2 4 5 3 2 11 6 7 2 3 5 2 12 6 16 15 14 14 15 17 17 19 16 13 12 11 10 10 8 7 7 7 8 8 7 7 7 7 6 5 6 6 11 14 12 13 13 13 14 14 13 13 13 13 13 12 12 10 10 8 11 7 9 10 10 7 10 9 8 8 7 8 8 8 6 3 2 3 4 4 4 4 5
1 2 2 2 7 4 3 3 2 3 7 5 7 6 1 4 4 5 3 13 15 5 9 5 4 4 13 6 17 17 15 15 17 19 17 14 12 9 7 6 6 5 4 4 4 5 7 8 8 7 8 8 8 6 5 5 7 12 11 13 14 14 13 14 12 13 12 11 10 10 9 6 5 5 6 4 7 4 7 10 10 9 9 8 8 7 7 7 7 5 2 1 4 5 5 5 5
1 2 4 6 6 6 2 3 2 3 5 6 8 5 1 6 4 3 11 13 14 13 12 10 14 13 13 16 16 15 15 18 17 17 14 13 11 9 8 6 5 4 3 5 4 4 4 4 7 7 7 7 5 4 3 3 4 7 4 5 6 9 11 11 8 5 6 4 10 8 5 4 4 3 4 5 4 5 6 10 9 9 9 8 7 7 7 6 6 6 4 1 2 5 6 3 3
4 2 4 10 5 3 1 2 7 4 8 12 8 4 1 3 5 1 9 5 14 14 9 14 15 14 14 15 15 15 15 15 15 15 15 14 11 10 9 6 4 4 5 6 6 6 5 4 2 5 6 5 5 4 3 3 4 4 4 3 4 7 6 6 4 5 4 5 4 4 3 2 2 2 3 3 3 6 5 11 10 9 9 8 7 7 6 6 6 6 4 3 2 4 3 3 3
4 4 6 9 1 2 3 3 6 8 10 12 6 7 6 5 3 0 8 8 16 16 11 11 17 15 13 13 13 13 14 14 15 14 14 13 11 10 8 8 8 6 6 3 4 3 4 5 4 4 6 6 5 4 4 4 3 4 4 3 3 3 3 3 3 4 4 4 4 3 3 2 2 1 3 8 7 3 5 9 11 10 10 9 8 5 5 6 6 6 5 3 2 1 1 2 4
3 4 7 3 2 3 4 3 4 8 13 10 2 3 9 10 2 6 10 11 6 8 14 18 18 18 17 14 14 13 14 14 13 14 15 13 8 6 8 7 8 5 2 5 4 3 3 4 4 6 7 7 6 5 5 4 4 4 3 3 3 2 3 3 3 3 3 3 3 3 3 2 2 0 1 1 1 2 3 2 3 3 4 4 6 3 2 2 3 2 2 1 1 1 1 2 3
2 5 5 4 6 5 9 6 7 7 10 0 4 7 4 5 6 10 12 12 9 12 10 17 19 19 19 17 13 12 12 13 13 13 14 15 14 8 3 3 1 0 2 5 5 4 4 4 5 5 7 6 6 6 6 5 5 5 4 5 4 4 4 2 2 2 2 2 2 2 2 3 2 1 1 1 1 0 1 2 4 3 2 3 3 4 2 2 2 2 2 2 1 1 1 1 3
5 7 4 5 6 6 4 3 4 5 5 3 4 3 1 4 3 0 6 12 7 3 11 15 17 16 15 15 14 12 11 13 14 14 13 14 13 10 7 4 5 6 3 3 4 4 4 4 4 6 7 6 6 5 5 5 5 5 5 5 6 5 4 3 2 2 2 2 3 3 3 3 3 3 2 1 1 0 1 3 4 4 4 3 2 3 2 2 2 3 2 2 1 1 1 1 2
7 9 3 6 7 10 10 8 5 6 9 3 2 3 5 5 4 3 5 4 12 11 10 12 15 16 16 15 12 12 14 13 12 12 13 13 11 12 10 8 6 3 4 4 4 4 4 4 4 6 7 6 5 5 6 5 4 5 5 5 5 5 5 4 3 3 3 3 3 3 3 4 4 3 3 3 3 2 2 3 4 3 2 3 3 2 3 2 3 3 3 2 2 2 3 2 2
8 9 8 6 4 6 7 6 6 7 3 4 4 6 2 1 1 4 6 10 14 15 14 14 14 14 14 15 15 15 15 14 12 9 10 10 9 7 5 3 4 4 7 5 4 4 4 4 4 6 6 6 5 5 6 4 4 4 5 5 5 5 4 4 4 4 4 3 3 3 3 3 2 2 3 4 3 3 3 3 3 4 3 2 2 3 3 3 4 4 4 4 4 3 3 4 3
5 10 6 5 5 6 5 4 5 7 2 1 4 5 2 5 11 9 5 10 12 13 14 14 14 14 14 13 16 16 15 14 12 10 11 10 8 4 6 6 6 6 7 9 7 5 5 5 5 4 5 6 5 5 5 5 5 5 5 5 4 4 4 4 3 4 3 4 3 3 3 3 4 4 3 2 2 4 4 4 3 2 3 2 3 3 3 4 4 4 4 4 4 5 4 6 4
2 3 7 10 10 7 4 5 3 4 2 3 2 4 4 4 6 2 2 11 14 14 14 12 14 14 11 12 14 15 16 14 12 11 12 11 10 11 9 7 6 6 8 8 7 6 6 6 5 5 5 6 4 5 4 5 4 5 4 4 3 4 3 3 2 3 3 4 4 3 4 4 3 3 3 3 3 4 4 4 4 2 2 3 3 3 2 4 4 4 5 5 5 5 6 5 5
5 6 5 5 7 7 2 1 1 1 2 2 5 2 4 3 5 10 10 8 15 17 14 13 13 12 12 15 15 13 12 10 10 12 14 13 10 8 8 7 7 7 7 7 6 5 6 6 6 5 5 5 4 4 4 4 4 4 3 4 3 3 3 3 3 3 4 4 3 4 4 4 3 3 4 4 4 4 4 4 4 3 4 4 3 3 1 0 3 4 4 4 4 4 5 3 4
6 6 5 6 5 5 5 5 3 4 2 4 3 2 3 3 5 13 13 11 12 17 15 14 13 14 15 15 14 12 12 10 9 9 8 6 6 4 6 4 7 7 4 6 6 6 6 6 6 5 5 4 4 5 5 4 3 3 3 3 3 4 4 3 4 4 4 3 3 3 3 3 3 4 4 4 4 4 4 4 4 4 4 4 4 3 3 2 0 2 3 2 2 2 1 2 2
3 1 4 3 3 3 8 2 3 6 3 5 6 3 6 5 6 12 14 12 11 16 14 13 13 13 14 15 13 12 10 9 7 7 6 6 7 6 8 5 5 5 6 5 6 7 6 4 4 5 5 4 4 3 3 2 2 2 2 2 3 4 4 4 4 3 2 3 3 3 4 4 4 3 3 3 4 4 4 5 5 5 3 3 3 3 4 4 4 3 3 2 4 3 4 1 4
3 3 1 2 1 3 4 2 4 4 4 6 5 5 6 5 6 12 13 14 15 15 13 12 12 13 13 13 14 11 8 7 9 7 6 5 6 6 7 6 6 5 4 5 6 7 6 5 5 5 5 4 4 3 3 2 2 3 3 2 3 3 3 4 2 3 3 4 4 4 5 5 4 3 3 4 4 4 4 3 5 5 3 3 3 3 4 3 5 5 2 3 3 2 2 1 3
2 3 4 2 3 4 7 4 4 5 1 6 5 4 7 4 10 14 13 12 15 16 12 12 12 13 14 11 12 12 10 10 10 7 6 5 5 6 7 7 7 6 5 6 6 6 6 5 6 5 5 5 4 4 3 3 4 4 3 3 2 2 3 4 3 3 3 3 4 4 5 5 4 3 4 4 4 4 4 4 4 3 3 3 4 3 3 4 4 4 3 3 3 2 1 0 2
2 4 4 2 3 5 4 3 4 8 2 1 9 5 1 1 7 11 11 13 15 16 13 12 15 16 14 13 11 11 11 10 10 8 7 5 5 6 6 7 7 7 6 6 6 6 6 6 6 6 6 6 5 4 3 3 3 3 2 2 2 3 3 3 3 3 3 4 4 4 4 4 4 4 5 5 4 4 4 5 4 3 3 3 3 3 3 3 4 4 4 3 4 1 1 1 2
5 1 4 3 4 2 2 5 3 4 5 3 5 4 4 1 12 8 11 15 16 15 13 13 14 12 13 13 12 11 10 9 8 7 6 4 6 6 6 7 8 8 7 7 6 7 7 6 6 6 5 5 5 5 4 3 2 1 1 2 1 2 2 1 2 3 4 4 3 4 4 4 5 4 3 4 4 4 4 4 4 3 3 3 3 3 4 3 3 4 5 4 4 3 2 2 3
5 1 1 3 1 3 6 4 3 4 5 8 1 5 9 4 4 15 13 15 17 16 14 13 13 13 13 12 11 11 9 9 7 6 6 5 6 5 5 6 6 5 4 5 5 5 5 5 5 5 5 4 4 4 3 2 1 2 1 1 1 2 3 3 3 3 4 4 4 5 4 5 5 3 3 3 3 3 2 3 3 3 2 2 2 3 3 3 4 4 5 4 3 3 4 5 4
7 5 4 4 5 4 4 6 4 7 5 9 5 6 9 4 3 9 8 11 15 12 13 11 11 12 12 11 10 9 9 9 6 5 5 4 5 7 7 7 7 6 5 5 5 4 4 4 3 3 3 3 3 3 4 3 2 2 2 1 1 3 4 4 4 4 4 4 4 4 5 4 3 3 3 2 3 3 3 3 4 3 2 2 3 4 4 4 6 5 6 6 5 3 4 4 3
5 4 4 6 6 6 3 3 4 4 4 9 7 5 2 2 5 18 11 10 12 15 14 11 10 11 12 12 11 10 10 9 6 6 4 6 8 7 7 8 8 7 6 6 5 3 3 5 5 4 2 2 3 5 5 5 1 3 2 2 4 3 4 3 4 4 4 5 4 5 4 4 3 3 3 2 3 4 4 4 4 3 3 2 3 5 5 5 4 4 4 3 5 5 4 4 4
7 4 4 7 3 8 5 5 5 5 6 6 3 7 9 4 4 11 13 14 11 13 14 14 16 14 13 15 12 11 10 8 9 9 10 9 10 10 10 9 8 8 4 6 5 4 4 5 6 4 4 4 4 3 4 5 4 5 3 4 4 3 3 3 5 5 6 4 4 4 4 3 3 3 3 3 3 3 4 4 4 4 4 4 4 3 3 3 3 3 3 3 3 6 5 6 6
6 6 4 2 7 2 4 3 4 6 6 5 7 13 8 9 10 10 12 13 8 6 11 15 19 17 13 12 12 12 11 11 9 9 9 10 11 11 10 9 8 8 7 7 5 6 5 5 4 4 4 4 4 3 3 2 1 1 1 2 2 2 2 4 4 4 3 3 3 4 4 3 3 4 4 3 3 3 4 3 4 3 4 4 4 5 4 4 3 4 5 5 4 3 3 4 7
6 3 3 9 4 2 4 4 5 5 7 3 13 14 7 7 11 12 7 11 11 9 12 14 12 13 14 12 10 10 11 11 11 10 9 9 10 10 10 10 8 7 8 8 6 6 6 6 6 7 7 7 7 6 3 1 0 0 1 3 4 2 2 1 3 2 2 2 4 4 4 4 4 4 3 3 3 3 3 4 4 3 4 4 4 5 4 5 3 3 4 6 4 4 3 5 6
6 6 4 7 5 5 4 4 2 7 3 18 15 11 5 4 12 10 10 12 14 12 14 13 12 13 13 12 11 9 11 10 11 10 10 10 11 11 11 7 7 9 9 8 7 7 7 7 7 7 7 7 6 7 6 5 5 4 4 2 2 3 1 1 0 1 2 3 3 2 5 4 4 4 3 3 4 4 3 4 4 4 5 5 4 5 5 5 4 4 4 5 7 7 7 4 5
8 5 9 12 7 3 2 3 1 0 4 7 16 6 2 4 5 14 9 8 10 10 13 12 12 11 12 12 11 11 10 8 10 10 9 10 10 11 11 9 10 9 10 7 6 8 8 7 7 7 7 7 7 7 6 6 6 6 6 5 5 4 4 5 2 2 3 3 4 2 3 3 4 4 4 4 4 4 4 5 5 5 6 6 6 6 5 5 5 5 5 6 7 7 6 4 5
6 7 11 14 8 3 1 6 2 4 9 10 4 11 3 1 6 8 9 11 10 9 11 11 10 10 10 9 9 10 11 9 9 10 7 11 10 11 11 10 9 10 8 5 7 8 8 7 6 7 6 6 6 7 7 6 7 6 5 4 3 3 4 3 3 3 2 3 3 4 4 2 2 3 3 4 4 4 5 5 5 5 7 6 5 6 6 6 6 6 5 6 7 7 3 6 7
9 4 10 10 5 4 7 5 7 5 1 1 1 6 9 5 8 5 8 12 11 10 9 10 9 11 10 9 10 11 10 10 9 10 8 11 11 10 10 11 9 8 7 6 8 6 6 8 7 7 7 7 6 5 7 6 6 5 6 5 5 6 6 5 6 4 3 2 4 3 3 4 2 2 2 3 4 4 4 5 3 5 5 5 4 6 7 6 6 5 6 7 7 6 7 9 8
4 5 6 5 6 7 8 9 5 4 5 2 4 4 8 2 4 8 8 12 9 8 9 10 10 11 11 10 11 11 10 9 10 9 8 10 11 9 10 11 7 9 7 6 6 3 5 7 6 5 7 6 6 6 6 6 5 5 5 5 6 5 4 5 5 6 6 6 5 4 3 3 3 3 1 1 1 2 2 2 4 5 6 5 3 5 5 5 7 7 7 6 6 6 6 7 7
8 5 5 4 4 4 7 7 7 2 2 6 8 10 8 3 4 10 5 6 10 8 8 9 10 11 11 10 10 10 9 10 11 10 10 10 10 10 9 9 10 8 6 5 5 6 8 7 7 7 8 6 6 6 6 7 6 6 7 7 7 6 6 6 5 6 7 6 6 6 4 3 3 3 4 3 4 3 2 2 4 4 5 4 5 6 3 5 8 9 8 6 6 7 7 8 8
1 6 5 2 2 3 4 4 4 4 5 9 12 10 9 5 9 11 11 11 15 10 7 9 10 11 11 10 11 9 8 9 10 10 10 9 8 9 10 10 9 7 5 5 6 7 6 6 6 7 6 6 6 7 7 8 7 7 6 6 6 6 6 6 6 7 7 7 7 7 7 6 5 4 4 4 4 4 4 3 3 3 4 5 5 4 6 8 9 9 7 6 7 8 7 7 9
7 4 5 3 5 2 2 1 2 5 6 6 8 8 10 10 7 9 4 3 8 14 16 15 14 13 11 10 10 9 9 9 9 10 9 8 10 10 8 9 9 6 6 6 5 5 6 5 5 6 6 6 6 6 7 7 7 7 7 7 7 6 7 6 6 7 7 6 7 7 7 7 7 5 5 5 5 3 3 4 3 3 5 6 6 5 5 6 5 5 5 6 7 8 8 7 8
10 6 3 9 2 3 4 1 4 6 6 3 8 6 4 2 0 2 4 7 10 1 7 14 16 15 13 12 11 9 8 10 9 9 8 7 7 7 7 9 7 4 4 4 4 4 4 4 4 5 5 5 6 5 6 5 6 7 7 7 6 6 7 7 7 7 7 6 6 7 8 8 8 9 8 8 7 6 4 4 3 3 4 5 6 6 6 6 5 5 6 6 6 6 5 2 3
9 10 6 7 5 5 5 2 1 1 5 4 8 4 3 1 2 4 8 8 12 9 11 13 13 14 13 12 10 9 9 9 8 9 8 7 7 6 6 7 5 4 3 2 2 3 3 4 4 5 4 4 5 6 5 6 6 6 6 6 5 5 5 5 6 5 5 5 5 6 6 6 6 6 7 8 8 7 6 4 4 5 4 5 5 7 7 5 4 6 6 7 8 7 5 4 9
8 3 8 7 6 4 4 3 7 7 6 1 5 5 3 6 1 5 10 10 10 11 10 10 10 11 11 9 10 10 10 8 8 8 8 8 8 8 8 6 5 3 2 1 1 3 3 4 5 5 5 5 5 5 5 6 6 6 6 6 5 4 4 4 4 4 5 6 5 5 5 5 5 6 6 7 7 7 7 6 5 5 6 5 5 6 6 5 5 5 6 6 6 5 6 6 6
4 4 6 5 10 7 2 6 6 4 3 1 6 2 2 3 2 6 10 12 12 13 12 11 11 9 9 9 8 8 8 8 7 7 7 6 7 7 7 4 3 3 3 4 4 4 6 6 6 5 5 5 4 4 4 5 5 5 5 5 5 4 4 4 5 5 5 4 5 5 6 5 5 6 6 6 7 7 7 6 6 6 6 6 5 5 5 5 5 5 5 6 8 5 6 7 8
5 6 11 9 6 8 4 1 1 4 7 2 2 5 4 4 4 6 12 12 11 13 12 12 12 10 10 8 7 7 7 7 7 6 6 6 5 6 4 3 3 4 4 4 5 6 6 5 6 6 6 4 4 4 4 4 4 3 3 4 4 3 3 3 2 3 4 4 4 4 5 5 5 5 6 6 6 7 8 8 7 7 6 6 5 5 5 6 6 5 5 6 7 6 4 7 7
5 9 9 4 4 6 6 4 1 1 7 2 1 6 7 7 4 5 9 12 10 10 11 12 12 10 10 8 7 7 7 7 6 5 5 6 7 7 6 6 6 8 6 6 6 4 4 4 4 6 4 4 3 4 4 4 3 3 2 3 3 3 4 4 4 4 4 4 5 5 5 6 7 7 6 6 6 7 8 9 9 9 8 6 6 6 5 6 6 6 5 5 6 5 6 6 7
11 10 5 5 2 7 2 5 3 2 2 2 0 7 4 5 4 8 10 13 11 11 11 12 12 11 10 9 9 8 7 7 6 5 6 6 7 7 6 7 7 6 5 5 5 5 5 4 4 4 4 3 3 2 3 3 3 2 3 3 4 5 5 5 5 6 5 5 7 8 8 8 8 8 9 10 9 9 8 8 8 9 8 10 9 8 7 6 6 6 5 6 6 5 5 6 6
2 4 4 3 5 4 3 5 4 7 3 4 3 7 3 5 7 13 12 12 13 13 11 12 12 11 10 10 9 8 7 6 6 5 6 8 8 6 7 7 7 7 8 6 5 5 5 4 4 4 3 3 3 4 4 4 3 3 5 6 7 6 6 6 6 6 7 9 10 10 10 10 10 9 9 9 10 10 10 11 9 9 10 10 11 12 13 13 11 8 7 6 6 6 6 7 7
2 3 0 1 1 2 5 1 5 5 6 4 5 4 4 3 6 13 14 14 14 14 12 11 10 11 10 10 9 8 7 6 4 4 7 9 7 8 8 6 6 7 6 5 5 5 4 4 4 4 4 3 4 4 5 5 5 5 7 8 8 7 8 7 9 9 9 10 9 10 10 9 8 9 9 10 10 10 11 11 10 10 10 11 12 11 11 10 10 10 10 11 12 10 8 7 6
7 7 5 5 4 4 6 6 2 4 7 5 5 4 2 2 1 9 13 13 13 12 12 11 10 11 10 8 7 8 7 4 3 5 6 8 9 9 9 8 7 7 6 6 5 6 6 5 4 5 7 6 6 6 6 5 5 6 7 8 8 7 7 7 9 9 9 8 7 8 8 8 8 8 9 9 10 8 9 10 10 11 11 10 11 11 12 10 11 11 11 9 9 10 11 10 7
Wind_Direction
339 337 327 335 12 30 53 7 26 306 72 217 248 242 251 241 262 324 285 319 7 334 313 51 42 145 138 144 121 100 37 113 197 136 210 169 64 104 109 113 114 110 115 120 121 118 119 120 118 118 118 118 118 114 111 108 106 105 105 104 103 102 102 102 104 106 107 106 103 100 101 99 94 92 92 94 98 103 107 108 108 109 105 106 104 103 104 102 100 99 101 97 95 92 90 88 92
6 354 350 347 323 55 357 130 103 354 38 350 246 112 245 259 356 252 270 251 204 98 117 83 77 83 100 120 126 89 39 33 71 101 90 97 86 74 104 107 117 117 118 118 118 118 120 120 119 118 119 119 118 115 111 110 109 110 109 107 107 105 104 104 105 107 108 107 105 104 99 93 92 90 89 87 91 99 101 106 108 105 105 104 108 110 106 107 104 100 98 95 91 87 82 80 81
9 14 357 19 20 85 245 44 223 163 148 232 262 223 292 10 265 273 272 178 122 148 114 101 104 84 107 39 29 50 121 86 92 87 92 115 96 89 89 101 104 110 113 117 120 121 121 122 121 120 120 119 118 114 113 113 112 113 112 110 110 108 107 106 107 108 108 109 108 103 99 100 98 97 95 90 88 89 91 92 94 90 92 90 90 101 93 85 92 90 95 94 90 83 72 60 63
60 54 99 53 347 15 69 20 100 135 169 212 274 259 240 229 258 261 294 151 157 174 149 110 56 307 113 65 76 69 94 94 99 118 117 113 105 120 109 109 106 106 111 118 120 122 123 125 122 121 121 119 118 115 116 116 116 115 115 114 112 111 110 107 109 111 112 110 105 104 104 103 101 98 96 91 88 89 92 94 94 94 94 100 99 90 93 95 92 94 83 81 82 77 63 43 45
66 323 116 82 108 353 102 198 168 126 216 190 218 269 179 227 266 280 275 241 186 155 114 125 85 21 82 103 103 26 146 107 92 79 93 88 114 118 116 110 109 107 108 114 119 120 125 125 122 120 120 120 118 118 119 119 118 118 119 116 115 114 114 112 109 108 107 105 105 105 104 105 104 102 99 94 94 93 91 93 95 94 94 91 87 87 84 85 79 75 74 76 79 67 46 38 37
50 69 332 90 128 202 47 359 280 222 229 168 241 219 211 226 254 266 274 29 108 123 117 72 123 159 42 3 16 114 139 95 119 82 113 127 124 123 117 114 109 108 111 117 121 123 126 124 121 120 122 122 121 120 119 120 120 121 122 119 117 117 119 118 114 111 111 109 108 106 104 104 105 103 100 97 95 95 97 94 88 88 89 85 87 86 87 84 83 80 81 74 63 52 38 31 32
350 27 11 24 343 69 161 185 234 234 258 182 240 256 286 292 277 288 282 41 11 59 67 110 115 103 78 89 32 17 55 108 87 120 119 133 127 124 121 111 108 112 117 120 120 121 126 123 120 122 124 125 122 121 121 121 122 125 125 121 120 122 123 123 120 115 113 110 104 108 105 105 106 105 101 101 100 98 93 90 88 85 82 84 85 87 87 84 80 76 73 61 45 41 35 33 34
137 98 294 100 251 65 239 226 241 173 264 181 244 265 271 273 282 296 286 131 192 116 146 123 125 94 44 33 111 12 50 65 102 113 119 126 126 118 114 116 112 115 121 120 121 125 124 121 123 123 125 125 124 123 125 125 126 128 128 124 125 129 128 119 105 105 111 107 110 110 108 108 107 107 106 101 95 91 90 88 89 89 86 83 80 88 91 87 82 79 72 58 37 29 28 31 34
7 83 307 70 306 342 312 250 249 222 269 274 268 250 260 259 268 272 288 297 77 77 137 148 155 89 178 73 62 75 75 97 108 117 121 126 120 117 117 117 116 121 123 124 123 122 122 124 126 127 128 128 130 131 132 130 130 131 128 128 131 127 119 107 102 94 96 103 107 110 111 113 114 111 106 102 97 95 94 96 95 92 90 88 91 92 91 91 88 84 78 62 37 21 25 28 28
27 99 253 149 133 233 264 271 239 240 243 254 252 257 252 266 267 258 250 254 150 131 43 343 108 115 124 91 97 55 104 110 116 116 117 112 113 112 111 115 119 123 121 119 121 124 126 130 131 133 134 138 140 140 135 130 130 134 133 131 129 122 115 111 103 102 99 99 110 121 119 119 120 119 114 108 103 100 98 97 97 97 97 99 95 93 92 90 92 87 74 65 34 24 25 22 23
356 345 168 99 164 238 237 268 272 297 274 275 267 248 243 245 250 261 254 221 157 130 130 105 71 110 96 81 63 67 115 114 114 114 110 112 110 109 109 113 117 121 121 122 127 127 130 135 138 140 143 143 142 134 129 126 131 135 133 130 129 124 118 115 115 116 113 115 117 123 122 124 123 119 113 109 104 102 100 99 99 100 98 98 99 97 95 95 91 81 66 52 30 22 26 24 18
29 319 67 138 203 185 241 215 265 272 281 289 271 255 226 227 230 237 235 148 156 143 160 169 148 117 80 106 109 117 107 97 104 109 108 108 106 109 113 113 113 116 123 128 128 134 142 146 147 149 147 143 137 131 125 129 137 139 138 136 132 125 119 116 120 119 120 118 121 121 120 120 124 124 119 110 106 105 104 102 102 102 103 101 97 98 97 93 88 77 60 43 23 21 20 18 17
143 248 88 99 233 165 243 273 267 287 309 277 263 277 223 226 208 204 198 104 146 137 203 141 140 126 119 118 121 115 106 116 110 107 109 107 107 107 105 108 114 121 128 135 141 150 154 154 154 149 145 141 133 129 131 135 140 142 140 136 129 126 122 117 121 121 121 123 120 117 114 117 120 120 117 111 107 109 109 106 104 105 107 105 102 99 99 98 88 78 66 32 24 22 13 11 8
150 180 129 234 193 226 249 246 274 314 287 271 287 277 249 160 202 172 110 73 126 150 90 137 120 111 103 114 119 126 132 134 110 108 107 106 106 104 104 110 116 128 145 152 154 156 153 146 132 123 130 126 130 130 134 139 142 143 140 135 129 125 121 121 124 124 122 122 121 118 117 118 119 120 119 120 117 115 113 111 107 108 111 113 113 112 110 103 97 74 43 22 12 28 10 357 6
202 179 106 166 291 344 226 226 138 198 276 281 270 304 298 334 72 71 115 103 70 85 99 66 146 95 199 145 156 153 149 131 109 110 105 105 103 102 107 114 126 143 158 159 144 137 129 115 109 108 114 116 111 111 129 146 146 145 142 138 131 126 123 127 128 127 126 123 127 127 129 126 126 126 126 127 129 122 120 117 116 114 114 117 123 123 121 116 107 92 28 345 351 14 5 344 355
197 135 140 204 253 206 267 177 217 248 264 286 271 307 36 21 17 101 298 114 117 93 70 183 261 177 163 171 150 145 141 121 113 109 107 105 102 102 112 132 148 157 154 144 138 136 140 142 140 136 132 129 127 136 143 144 147 148 141 133 129 132 132 132 132 132 133 136 140 144 144 142 139 139 141 141 139 132 126 126 125 123 123 123 124 131 126 124 124 114 56 346 328 344 341 337 339
216 155 256 222 267 213 261 175 208 235 271 280 287 360 61 64 42 54 42 100 101 68 69 10 355 76 131 111 129 133 128 115 114 113 112 111 108 109 124 140 150 114 118 139 133 143 148 144 144 138 142 142 142 139 130 127 144 143 137 136 139 141 139 137 139 138 139 146 149 147 143 149 158 155 151 158 151 147 144 139 135 135 134 132 130 130 137 137 134 133 132 343 322 322 320 320 311
155 211 195 243 220 245 205 253 248 295 302 304 333 339 350 102 97 134 68 65 89 84 76 64 54 66 101 116 121 127 124 117 120 119 118 115 118 132 144 151 93 127 154 147 137 153 154 151 144 138 131 129 121 104 107 125 137 132 126 134 136 144 144 145 142 142 141 144 152 152 157 164 166 162 167 168 166 166 154 151 147 142 142 139 136 136 140 143 142 140 152 184 299 304 303 313 311
169 212 169 235 204 229 179 247 285 343 298 307 286 333 63 12 140 193 86 93 100 85 76 90 82 83 95 109 121 124 121 119 118 118 120 119 127 137 145 105 106 162 192 174 157 152 143 118 122 125 116 112 103 92 107 103 101 107 104 107 130 147 150 141 145 144 150 160 158 160 158 162 172 185 183 182 185 175 168 162 157 156 147 148 146 145 146 152 152 151 160 180 236 286 305 308 306
220 179 228 236 230 265 255 287 291 289 288 293 318 326 45 319 102 122 115 133 110 117 118 97 113 119 118 122 125 124 118 118 119 119 111 114 124 127 114 138 160 193 199 128 119 108 132 137 126 111 112 99 89 85 77 72 77 77 83 94 123 135 135 143 144 151 173 169 164 152 126 117 117 87 248 204 184 175 182 174 165 158 157 153 155 151 158 159 166 169 167 192 193 16 319 305 312
261 165 223 235 226 284 266 247 273 293 294 287 307 324 20 338 7 115 133 92 93 136 146 142 143 137 134 134 131 128 121 122 115 113 115 116 105 110 144 177 170 169 143 99 112 116 94 88 102 93 98 106 109 112 107 101 96 99 106 126 141 142 157 151 147 161 179 178 165 148 148 130 107 79 38 10 174 177 174 162 175 169 150 156 152 142 156 182 150 156 151 165 167 187 306 306 319
309 222 214 210 271 283 263 259 269 270 276 269 320 32 318 302 50 125 139 134 179 173 176 142 140 139 137 136 134 126 125 115 115 118 125 130 125 127 177 191 117 177 137 130 133 112 79 84 93 100 96 100 115 128 135 133 122 128 137 154 156 181 167 139 130 153 135 129 131 147 140 120 135 99 46 360 13 37 190 197 183 178 157 166 149 157 174 180 160 166 173 195 220 174 199 282 291
246 276 274 237 229 234 272 250 247 288 311 34 344 314 310 18 116 9 173 156 173 118 136 135 131 131 128 126 128 123 109 115 122 130 132 123 121 140 191 172 171 165 143 97 92 90 89 90 93 96 98 101 106 113 110 116 136 148 151 162 163 181 161 144 163 150 131 143 154 161 147 155 174 161 165 159 277 8 264 242 225 192 169 172 174 153 190 191 185 180 173 214 230 227 247 246 277
219 252 243 250 228 235 253 268 296 265 271 295 251 354 27 358 49 318 103 87 102 103 113 116 119 122 124 121 121 106 112 115 127 141 131 112 137 169 178 172 193 86 99 100 81 90 105 106 113 106 110 107 111 117 126 138 154 151 158 161 164 176 159 162 173 173 164 171 164 179 168 174 175 176 191 184 210 224 239 228 208 208 182 169 169 173 192 216 204 190 186 197 222 237 245 232 227
227 248 242 246 213 227 236 240 245 251 280 297 21 341 3 109 123 73 69 107 114 121 121 117 117 116 115 117 106 106 107 113 117 117 97 116 140 153 164 175 147 122 120 123 110 108 122 131 120 121 115 116 123 135 141 153 163 160 157 162 171 174 166 176 176 175 179 192 183 171 167 171 179 187 198 204 185 215 233 233 208 191 171 181 159 205 196 207 217 207 195 189 207 234 240 245 233
224 229 242 259 252 238 220 229 218 235 228 287 331 311 17 111 74 44 96 105 112 115 114 117 116 117 118 108 108 109 112 114 117 106 96 98 83 77 157 171 159 143 141 138 141 141 138 136 129 123 124 133 142 136 157 164 180 176 173 168 168 163 183 176 166 185 198 190 195 181 185 176 191 195 198 197 208 233 235 251 226 210 183 173 168 208 225 212 212 216 214 199 197 215 229 241 233
225 226 219 232 246 249 247 228 254 223 261 149 168 307 299 139 93 65 74 130 126 117 116 120 120 119 114 103 106 110 115 122 119 110 104 117 142 157 171 171 160 143 140 137 141 147 144 135 127 130 132 142 141 145 167 181 189 193 178 159 166 173 186 178 164 183 206 221 209 197 194 189 187 181 183 192 204 227 237 237 242 206 205 202 177 201 216 225 232 212 210 211 208 206 222 228 212
291 276 314 292 273 261 227 337 258 174 304 170 123 221 288 353 108 150 153 157 134 124 123 124 121 116 103 99 101 104 104 108 116 123 133 148 155 156 151 157 149 145 147 146 142 134 127 127 126 130 138 145 147 156 169 183 195 199 178 158 173 179 178 192 188 191 205 216 217 215 209 206 197 187 182 194 200 211 226 229 233 216 215 205 195 180 150 190 253 242 214 210 215 215 240 257 234
248 245 264 271 315 299 259 223 226 180 255 200 119 17 334 343 153 150 150 149 139 124 125 126 121 109 102 102 104 107 114 125 131 126 124 107 118 129 128 138 144 143 144 142 131 124 121 130 133 135 136 135 148 167 176 191 192 190 180 183 176 180 187 190 202 206 210 216 225 239 235 220 211 195 192 202 208 202 221 233 238 226 214 206 192 182 183 188 223 287 264 205 199 224 246 275 31
280 196 193 308 358 315 268 205 165 175 227 182 104 253 270 262 169 160 150 145 135 120 125 128 119 111 108 108 105 106 121 121 104 95 103 118 122 128 127 131 124 130 140 132 122 124 125 125 133 134 139 130 143 153 157 177 193 196 196 196 196 179 188 192 210 213 222 219 214 226 233 229 225 211 204 218 217 207 206 221 232 239 216 209 194 175 194 202 224 232 251 261 242 235 255 22 81
285 245 69 182 7 272 277 200 139 166 211 159 123 203 276 270 182 167 159 148 138 126 129 124 114 111 109 111 112 107 87 86 97 97 106 118 117 116 118 117 112 112 115 122 127 131 132 133 138 136 140 141 146 149 155 179 201 203 193 193 214 196 181 182 202 198 221 225 215 223 226 228 227 219 215 214 208 207 213 218 229 238 220 203 210 193 189 211 212 224 199 225 261 283 284 116 131
311 343 276 312 144 275 290 299 144 195 277 136 122 229 233 237 181 168 162 147 129 125 130 121 116 114 113 107 104 105 105 102 98 85 74 77 87 114 122 124 122 121 125 132 134 137 135 139 138 130 136 142 149 153 162 184 209 214 184 167 215 226 167 160 191 217 223 234 228 227 222 229 229 221 204 194 198 198 202 214 227 233 226 206 223 211 179 199 216 222 199 181 231 274 343 74 177
334 183 271 259 137 240 332 292 195 200 162 117 169 214 305 300 188 168 154 141 132 130 134 131 121 118 115 112 109 111 112 110 101 87 74 68 69 106 116 128 129 128 130 136 141 140 136 140 135 128 135 149 154 150 153 187 225 230 179 142 170 225 206 168 185 226 245 241 238 240 238 232 237 225 198 194 194 201 204 215 221 209 209 202 211 226 221 206 199 217 217 196 175 169 60 101 248
285 6 200 208 177 237 246 292 310 209 177 227 226 199 223 83 159 179 160 144 136 133 139 131 126 122 114 111 110 112 113 109 92 86 71 68 75 78 103 117 130 136 138 139 146 146 142 143 143 147 154 154 150 149 160 182 234 308 330 98 159 266 271 234 199 200 229 238 243 246 241 238 243 242 222 195 195 198 198 212 232 212 193 193 205 209 231 210 214 206 225 211 192 167 141 178 189
218 227 195 292 270 184 205 181 263 139 217 215 201 204 249 119 164 165 167 154 141 142 138 130 125 112 108 108 110 109 107 102 101 105 88 71 68 55 69 91 89 101 104 116 121 122 130 141 145 154 150 148 153 146 145 95 26 359 19 72 175 241 274 271 244 228 228 233 234 236 233 234 237 238 236 211 201 215 208 228 242 231 190 206 218 228 226 212 212 212 214 222 199 168 165 201 191
204 175 187 188 196 235 211 231 274 163 203 222 172 207 235 194 102 158 153 146 133 115 105 113 104 102 100 100 101 103 102 94 98 90 87 74 64 73 86 92 92 95 99 102 103 113 116 109 108 110 136 154 137 134 116 80 11 322 311 345 306 255 253 249 237 236 241 239 242 241 238 237 242 242 241 217 202 201 203 216 234 244 221 190 210 229 234 216 211 208 215 203 199 174 161 162 170
205 192 196 228 210 246 234 234 235 195 172 213 204 219 349 31 124 163 137 102 94 112 121 114 108 107 107 107 107 105 99 106 116 110 102 90 82 83 81 83 85 84 86 85 86 84 93 110 99 83 80 99 123 125 121 148 193 275 283 254 245 228 221 223 234 229 233 241 247 246 246 245 252 263 259 246 229 220 207 202 207 233 243 232 227 228 224 226 224 222 227 208 196 198 191 163 180
218 213 199 244 233 235 231 218 228 212 177 244 180 69 30 359 102 111 94 93 104 122 121 114 113 112 110 109 105 99 105 100 96 86 83 82 86 81 78 74 75 75 59 79 81 84 85 80 91 93 77 74 86 104 118 136 161 196 199 226 230 255 237 233 249 242 231 229 231 244 247 246 251 256 262 257 250 231 226 214 208 210 215 238 250 261 256 237 218 215 202 226 228 205 211 175 179
231 205 217 277 255 243 313 269 261 225 191 238 98 79 34 31 49 65 95 101 101 98 112 122 122 116 106 103 100 104 100 91 85 88 83 85 82 79 77 74 70 67 65 59 52 65 64 76 81 85 70 69 63 75 101 100 130 193 181 259 227 267 249 235 238 249 236 223 219 230 237 241 233 244 251 254 249 247 240 232 232 217 214 230 249 262 260 256 228 212 201 205 216 241 224 188 181
219 213 185 226 231 160 295 305 235 217 186 134 105 92 64 40 61 72 60 106 111 105 110 111 108 109 110 107 106 104 99 98 96 90 88 84 81 81 75 65 63 65 58 45 39 48 45 39 42 49 44 37 27 18 18 343 238 264 257 268 290 240 247 235 220 283 268 266 243 218 232 230 227 231 234 248 256 256 239 236 243 234 232 221 234 252 261 265 256 237 218 221 198 218 222 218 204
228 193 195 239 240 209 168 248 263 211 57 112 96 76 57 12 107 85 91 92 98 97 89 80 79 88 95 94 89 90 94 106 105 95 86 82 79 75 74 70 67 62 49 40 29 44 54 49 49 56 51 42 32 25 25 23 18 9 356 352 357 351 359 32 50 253 234 244 269 260 234 220 231 236 232 232 234 240 236 238 237 248 251 234 227 237 244 247 249 245 238 226 214 216 224 225 220
243 223 198 230 229 217 202 282 350 140 135 161 127 48 345 311 115 126 124 95 84 95 95 96 97 94 93 92 98 94 87 81 94 90 91 88 87 80 72 64 65 61 56 33 47 54 55 48 48 47 48 40 31 27 26 36 40 33 25 27 12 2 346 345 2 275 264 250 241 284 273 227 224 233 237 236 237 232 235 234 235 235 239 237 227 231 233 233 234 231 226 229 237 237 230 211 231
207 243 192 226 222 186 236 269 84 176 179 227 164 139 204 243 159 137 124 114 110 104 102 108 103 104 101 105 104 103 105 98 90 87 88 90 79 76 71 63 59 62 59 36 52 51 49 46 45 51 50 40 32 33 31 38 41 33 35 38 48 40 359 310 323 329 326 321 339 320 290 299 289 263 258 249 245 238 234 235 239 242 237 236 242 236 240 237 232 227 222 221 232 242 255 242 229
228 173 181 211 191 187 234 241 227 232 306 267 100 146 140 179 188 186 146 127 126 113 112 110 107 108 108 108 108 109 105 101 97 91 84 85 77 75 79 70 53 60 57 46 59 45 54 49 34 39 37 36 34 42 37 37 47 34 34 31 35 26 15 347 338 328 338 5 15 5 15 23 348 309 306 310 295 293 285 285 297 275 277 282 275 241 245 247 245 241 224 225 231 214 204 233 245
219 221 195 197 171 195 216 221 220 211 128 260 130 132 89 187 170 164 148 124 125 121 121 117 111 109 110 111 110 108 105 104 100 93 81 81 84 76 73 73 66 58 52 43 60 50 59 51 39 36 42 33 25 33 48 40 48 48 39 31 35 20 9 1 355 5 5 356 358 344 9 352 357 347 360 323 295 326 329 290 245 241 259 254 263 292 292 302 283 257 239 230 227 232 221 230 238
241 221 206 194 174 183 205 224 220 266 130 207 188 176 110 194 208 163 176 154 150 142 130 125 122 117 115 114 110 102 99 98 93 93 90 80 82 84 81 81 68 54 42 41 45 45 50 48 45 43 36 29 19 22 37 41 44 47 44 36 32 17 10 5 12 10 5 358 4 355 349 348 336 330 320 322 316 304 290 303 324 297 264 249 232 227 233 258 261 264 256 247 238 239 231 230 232
204 199 227 218 73 178 233 195 138 78 224 226 190 192 129 168 208 187 176 190 165 143 137 131 126 119 117 116 112 107 103 101 98 92 85 87 87 87 78 75 69 54 40 31 42 42 45 46 47 48 30 31 25 22 27 36 39 44 46 39 32 22 8 9 9 9 3 1 5 356 353 337 320 306 307 305 302 302 306 308 295 279 278 268 256 241 226 228 242 246 254 255 247 238 235 223 228
214 207 192 208 295 11 242 318 48 191 246 263 193 193 169 166 204 208 226 73 173 160 153 146 139 134 130 126 118 112 108 105 102 100 98 92 84 76 81 78 74 64 46 32 36 37 40 40 45 50 30 30 38 40 43 41 45 43 46 35 28 20 20 15 11 11 9 6 360 355 349 345 342 326 326 322 312 297 289 285 261 260 257 256 254 241 234 229 240 244 245 249 252 246 241 227 229
205 214 142 161 251 146 256 186 212 207 196 246 159 143 71 17 49 206 209 155 166 135 129 140 137 136 132 128 122 116 112 109 109 106 100 90 87 91 88 84 76 81 82 61 40 27 30 41 42 62 41 41 46 42 50 40 38 39 32 26 21 15 15 14 18 19 9 8 358 360 1 358 353 356 346 332 319 317 308 296 282 272 269 254 261 267 253 246 249 246 243 240 244 258 257 285 285
194 201 168 146 164 179 205 240 192 282 273 257 161 102 68 81 88 47 139 147 139 127 128 129 130 131 129 126 121 117 112 113 113 110 109 105 101 96 90 91 91 66 44 27 19 21 22 39 49 68 52 40 47 47 45 47 38 37 30 18 8 6 21 20 21 13 4 6 2 3 4 354 346 338 337 339 315 312 310 289 286 285 270 262 254 250 255 257 262 259 251 250 260 257 251 213 239
204 145 150 174 146 159 189 187 174 190 202 160 0 161 240 150 268 89 117 116 107 115 116 113 111 112 114 119 116 115 115 115 119 117 120 121 119 114 102 93 85 95 102 59 352 353 14 45 72 69 55 31 41 47 49 48 39 36 32 27 18 12 19 20 12 4 4 4 359 357 352 344 344 333 345 325 322 321 307 300 290 282 282 271 259 257 259 259 252 251 248 254 254 252 235 224 218
212 163 87 142 208 133 137 197 150 194 154 92 12 91 320 55 33 97 98 100 107 118 114 112 114 116 116 112 115 117 118 118 115 116 115 122 129 115 107 114 92 90 87 53 33 45 73 77 78 74 72 63 51 51 51 58 50 48 40 34 24 23 22 9 2 358 356 347 345 349 345 340 337 335 333 326 336 339 330 317 299 286 284 282 271 254 257 263 252 245 254 258 259 250 245 240 247
221 137 206 211 127 118 110 43 153 88 76 2 159 109 88 113 63 96 109 108 117 122 126 125 127 126 118 117 118 117 119 114 108 101 109 120 111 93 107 110 88 73 64 49 61 75 91 90 84 75 73 71 70 65 65 59 60 65 51 53 39 38 29 20 5 357 347 339 337 335 336 333 327 342 335 333 339 347 350 347 337 320 300 289 289 270 256 261 263 254 255 257 260 261 245 242 241
143 197 213 102 132 116 126 185 270 48 166 202 201 148 162 162 176 156 122 123 132 133 138 130 129 125 124 122 116 116 111 107 101 97 100 100 96 97 94 87 84 88 87 79 68 66 73 80 83 89 86 85 68 71 67 67 70 55 33 20 8 1 355 349 347 350 350 355 353 350 345 349 348 338 340 339 349 353 356 357 353 348 337 323 307 297 280 266 262 265 264 263 258 252 249 245 236
177 202 146 147 167 246 301 107 176 166 139 122 176 155 185 195 142 148 155 147 148 144 138 135 138 135 128 122 117 113 112 109 104 105 102 94 95 92 86 90 95 94 85 80 73 81 83 77 84 91 106 114 111 81 69 60 62 50 29 12 3 353 351 347 340 342 349 2 8 8 6 2 358 360 360 2 360 2 0 353 353 352 360 3 347 330 318 298 281 274 267 267 268 259 255 254 240
86 109 148 164 131 197 127 193 174 115 161 130 168 176 236 190 166 172 165 156 150 147 150 147 144 135 128 127 125 127 124 116 120 122 103 96 91 89 87 94 89 79 74 67 66 63 64 68 81 86 75 65 49 41 43 50 35 37 25 20 15 11 8 8 5 3 15 25 24 21 18 12 6 3 4 2 4 359 1 359 355 359 6 5 11 15 10 3 351 333 315 294 276 263 255 255 256
68 103 195 202 163 229 115 89 135 156 158 168 139 188 234 233 185 167 163 164 158 156 151 144 138 131 127 126 130 129 125 131 127 117 104 101 95 80 68 69 74 74 73 66 57 58 48 40 37 38 67 55 46 37 45 43 41 31 37 34 27 21 20 23 29 26 36 36 30 25 20 11 7 9 1 3 4 2 5 0 3 3 4 24 23 17 9 4 6 0 356 349 342 326 294 263 248
161 155 181 168 114 117 161 249 8 101 109 167 154 218 264 216 191 170 156 158 150 151 143 140 128 117 117 119 123 131 133 128 131 106 98 95 82 78 81 75 71 68 61 56 45 46 43 39 37 42 56 59 64 50 50 44 44 45 48 42 35 29 26 31 35 30 34 36 35 32 23 17 16 6 7 3 3 2 6 3 8 10 2 30 17 19 4 5 0 353 345 348 341 341 339 320 282